Home > Weather > San Jose > Past weeks

Flag for U.S.A. Weather for the Past 2 Weeks in San Jose, California, U.S.A.

Now
60 °F

Broken clouds.


Feels Like: 60 °F
Forecast: 47 / 73 °F
Wind: No wind

Location: San Jose International Airport

Current Time: Feb 10, 2016 at 10:54:04 AM

Latest Report: Feb 10, 2016 at 9:53 AM


Visibility: 9 mi

Pressure: 30.27 "Hg

Humidity: 67%

Dew point: 49 °F

Location of San JoseLocation

Historic Weather in San Jose — Graph

°F

San Jose Temperature Yesterday

Maximum temperature yesterday: 74 °F (at 1:53 PM)
Minimum temperature yesterday: 46 °F (at 4:53 AM)
Average temperature yesterday: 59 °F

High & Low Weather Summary for the Past Weeks

 TemperatureHumidityPressure
High76 °F (Feb 7, 2:53 PM)93% (Jan 29, 10:53 PM)30.46 "Hg (Jan 29, 10:53 PM)
Low39 °F (Feb 2, 12:53 AM)23% (Feb 7, 2:53 PM)29.76 "Hg (Jan 31, 2:53 PM)
Average54 °F68%30.22 "Hg
* Reported Jan 26 9:53 AM — Feb 10 9:53 AM, San Jose, Weather by CustomWeather, © 2016

Note: Actual official high and low records may vary slightly from our data, if they occured in-between our weather recording intervals... More about our weather records

Advertising

San Jose Weather History for the Previous 24 Hours

 ConditionsComfort  
Time TempWeatherWind HumidityBarometerVisibility
9:53 AM
Wed, Feb 10
60 °FBroken clouds.No wind67%30.27 "Hg9 mi
8:53 AM55 °FBroken clouds.No wind69%30.28 "Hg10 mi
7:53 AM50 °FBroken clouds.No wind77%30.26 "Hg10 mi
6:53 AM47 °FPassing clouds.No wind80%30.24 "Hg10 mi
5:53 AM47 °FClear.5 mph80%30.22 "Hg10 mi
4:53 AM49 °FClear.6 mph74%30.22 "Hg10 mi
3:53 AM50 °FClear.No wind74%30.20 "Hg10 mi
2:53 AM49 °FClear.6 mph80%30.21 "Hg10 mi
1:53 AM52 °FClear.5 mph77%30.21 "Hg10 mi
12:53 AM54 °FClear.No wind74%30.20 "Hg10 mi
11:53 PM
Tue, Feb 9
54 °FClear.No wind74%30.20 "Hg10 mi
10:53 PM59 °FClear.3 mph67%30.19 "Hg10 mi
9:53 PM58 °FClear.No wind75%30.17 "Hg10 mi
8:53 PM63 °FClear.3 mph65%30.17 "Hg10 mi
7:53 PM62 °FPartly cloudy.No wind65%30.17 "Hg10 mi
6:53 PM63 °FPartly cloudy.3 mph68%30.17 "Hg10 mi
5:53 PM65 °FPassing clouds.6 mph61%30.16 "Hg10 mi
4:53 PM68 °FBroken clouds.8 mph55%30.14 "Hg10 mi
3:53 PM70 °FBroken clouds.8 mph53%30.13 "Hg10 mi
2:53 PM72 °FBroken clouds.8 mph46%30.11 "Hg10 mi
1:53 PM74 °FBroken clouds.3 mph40%30.11 "Hg10 mi
12:53 PM72 °FBroken clouds.No wind37%30.14 "Hg10 mi
11:53 AM69 °FBroken clouds.3 mph44%30.19 "Hg10 mi
10:53 AM65 °FBroken clouds.No wind49%30.23 "Hg10 mi
Weather by CustomWeather, © 2016

See weather overviewHow to use our weather pages